Location: Fernhill
(41.0167°S, 175.6333°E)
Time: 19:08:06
(UTC+00:00)

Lacrosse 4 Rocket - Visible Passes

Search period start: 06 February 2026 00:00
Search period end: 16 February 2026 00:00
Orbit: 513 x 564 km, 68.0° (Epoch: 6 February)

Date Brightness Start Highest point End Pass type
(mag) Time Alt. Az. Time Alt. Az. Time Alt. Az.
6 Feb 2.0 09:47:45 10° SSW 09:51:44 42° SE 09:51:44 42° SE visible
6 Feb 4.1 11:26:30 10° WSW 11:27:12 13° WSW 11:27:12 13° WSW visible
7 Feb 1.7 09:39:17 10° SSW 09:43:22 49° ESE 09:43:32 49° ESE visible
7 Feb 4.2 11:18:27 10° WSW 11:18:59 12° WSW 11:18:59 12° WSW visible
8 Feb 1.5 09:30:48 10° SSW 09:34:57 58° ESE 09:35:22 54° E visible
8 Feb 4.2 11:10:33 10° W 11:10:49 11° W 11:10:49 11° W visible
9 Feb 1.3 09:22:19 10° SSW 09:26:32 68° ESE 09:27:14 55° ENE visible
10 Feb 1.2 09:13:52 10° SSW 09:18:04 81° ESE 09:19:08 49° NE visible
11 Feb 1.3 09:05:24 10° SSW 09:09:37 86° WNW 09:11:06 39° NNE visible
12 Feb 1.4 08:56:57 10° SSW 09:01:07 73° WNW 09:03:06 29° NNE visible
13 Feb 1.7 08:48:29 10° SW 08:52:37 61° WNW 08:55:11 21° N visible
14 Feb 2.0 08:40:02 10° SW 08:44:06 51° WNW 08:47:19 15° N visible
15 Feb 2.4 08:31:36 10° SW 08:35:34 43° WNW 08:39:25 10° N visible
